Location: Ústí nad Labem
(50.6611°N, 14.0531°E)
Time: 15:21:43
(UTC+02:00)

Transit 2A Rocket - Pass Details

Date: 26 April 2024
Orbit: 585 x 909 km, 66.7° (Epoch: 20 May)

Event Time Altitude Azimuth Distance (km) Brightness Sun altitude
Rises 21:14:53 0° 312° (NW) 3,353 10.6 -8.8°
Reaches altitude 10° 21:18:00 10° 294° (WNW) 2,470 9.2 -9.2°
Maximum altitude 21:21:46 18° 253° (WSW) 1,994 7.6 -9.7°
Drops below altitude 10° 21:25:39 10° 212° (SSW) 2,556 7.7 -10.2°
Sets 21:28:58 0° 195° (SSW) 3,514 8.2 -10.6°
